BEIDOU-2 M3 (C11)

Last updated on Mon Oct 20 2025 00:03:24 GMT+0000 (Coordinated Universal Time)

1 38250U 12018A 25292.09448999 -.00000063 00000+0 00000+0 0 9990 2 38250 55.9650 312.9946 0024697 269.2495 90.5111 1.86229896 91456
UTC large
Height (km)
Speed (km/s)
/
Latitude / Longitude
Inclination (degrees)
Orbital Period (minutes)
Azimuth
Elevation
Range (km)
Doppler Factor

Next 0 passes for location: London (51.5072 / 0.1276)

Sorry there are no passes over London.